QPF
0.02 0.02 0.02 0.01 0.02 0.02 0.02 0.02 0.02 0.01 0.01 0.00 0.00 0.00 0.00 0.00 0.00 0.00 0.00 0.00 0.01 0.01 0.00 0.00 0.01 0.01 0.02 0.02 0.02 0.02 0.03 0.04 0.05 0.05 0.06 0.07 0.11 0.13
0.02 0.02 0.02 0.02 0.01 0.01 0.01 0.01 0.02 0.01 0.01 0.00 0.00 0.00 0.01 0.00 0.00 0.00 0.01 0.01 0.01 0.01 0.01 0.01 0.01 0.02 0.02 0.02 0.02 0.02 0.03 0.03 0.04 0.05 0.06 0.06 0.08 0.10
0.03 0.02 0.02 0.02 0.02 0.02 0.01 0.01 0.01 0.01 0.01 0.01 0.00 0.00 0.00 0.00 0.01 0.00 0.01 0.01 0.01 0.01 0.01 0.01 0.02 0.02 0.02 0.02 0.02 0.02 0.03 0.04 0.04 0.04 0.06 0.05 0.06 0.08
0.02 0.02 0.02 0.02 0.02 0.02 0.02 0.02 0.02 0.02 0.02 0.02 0.01 0.01 0.01 0.01 0.01 0.01 0.01 0.02 0.01 0.01 0.02 0.01 0.01 0.01 0.02 0.02 0.03 0.03 0.04 0.04 0.04 0.04 0.05 0.05 0.06 0.06
0.01 0.01 0.01 0.01 0.01 0.02 0.02 0.02 0.02 0.02 0.02 0.03 0.02 0.02 0.02 0.02 0.01 0.01 0.01 0.02 0.02 0.02 0.01 0.01 0.01 0.01 0.02 0.02 0.03 0.03 0.03 0.03 0.04 0.04 0.05 0.05 0.05 0.06
0.01 0.01 0.00 0.00 0.01 0.01 0.02 0.02 0.03 0.03 0.03 0.03 0.02 0.02 0.02 0.02 0.02 0.01 0.01 0.02 0.02 0.02 0.01 0.01 0.01 0.01 0.01 0.02 0.02 0.02 0.02 0.03 0.03 0.03 0.03 0.04 0.05 0.06
0.00 0.00 0.00 0.00 0.00 0.00 0.01 0.02 0.03 0.03 0.04 0.03 0.02 0.02 0.01 0.01 0.01 0.01 0.01 0.01 0.01 0.01 0.01 0.01 0.01 0.01 0.01 0.01 0.01 0.01 0.01 0.02 0.02 0.02 0.03 0.04 0.04 0.04
0.00 0.00 0.00 0.00 0.00 0.01 0.01 0.01 0.02 0.03 0.03 0.03 0.03 0.02 0.01 0.01 0.01 0.01 0.01 0.01 0.01 0.00 0.01 0.01 0.01 0.01 0.01 0.01 0.01 0.01 0.01 0.02 0.02 0.03 0.03 0.04 0.04 0.04
0.00 0.00 0.00 0.00 0.00 0.00 0.00 0.01 0.01 0.02 0.02 0.02 0.03 0.02 0.01 0.01 0.01 0.02 0.02 0.02 0.02 0.01 0.01 0.01 0.01 0.01 0.01 0.01 0.01 0.01 0.02 0.02 0.03 0.03 0.04 0.04 0.04 0.04
0.00 0.00 0.00 0.00 0.00 0.01 0.01 0.01 0.01 0.01 0.01 0.01 0.01 0.01 0.01 0.02 0.03 0.04 0.04 0.03 0.02 0.01 0.01 0.01 0.01 0.01 0.01 0.01 0.01 0.01 0.02 0.03 0.03 0.04 0.05 0.05 0.05 0.05
0.00 0.00 0.00 0.00 0.01 0.01 0.02 0.01 0.01 0.01 0.01 0.01 0.01 0.02 0.02 0.02 0.03 0.04 0.03 0.03 0.03 0.02 0.01 0.01 0.01 0.01 0.01 0.01 0.01 0.02 0.03 0.03 0.04 0.04 0.04 0.05 0.06 0.05
0.00 0.00 0.00 0.01 0.01 0.01 0.02 0.02 0.02 0.01 0.01 0.02 0.02 0.02 0.02 0.02 0.03 0.03 0.03 0.04 0.04 0.03 0.01 0.02 0.02 0.02 0.02 0.01 0.01 0.02 0.03 0.04 0.04 0.04 0.04 0.04 0.04 0.04
0.01 0.01 0.00 0.01 0.01 0.01 0.02 0.02 0.03 0.02 0.02 0.02 0.01 0.01 0.01 0.02 0.02 0.02 0.02 0.03 0.04 0.04 0.03 0.03 0.03 0.03 0.03 0.02 0.01 0.02 0.04 0.04 0.04 0.04 0.04 0.05 0.04 0.04
0.01 0.01 0.01 0.01 0.01 0.01 0.01 0.02 0.02 0.02 0.02 0.02 0.02 0.01 0.01 0.01 0.01 0.01 0.02 0.02 0.03 0.04 0.03 0.04 0.04 0.04 0.04 0.04 0.03 0.03 0.04 0.05 0.05 0.04 0.04 0.05 0.05 0.05
0.01 0.01 0.02 0.02 0.01 0.01 0.01 0.01 0.02 0.02 0.02 0.02 0.02 0.02 0.02 0.02 0.02 0.02 0.02 0.02 0.03 0.03 0.02 0.02 0.03 0.03 0.04 0.05 0.04 0.05 0.05 0.05 0.05 0.05 0.05 0.05 0.05 0.05
0.01 0.02 0.02 0.02 0.02 0.02 0.01 0.01 0.02 0.02 0.02 0.02 0.02 0.02 0.02 0.02 0.03 0.03 0.03 0.02 0.02 0.02 0.02 0.02 0.02 0.03 0.05 0.05 0.06 0.06 0.06 0.06 0.05 0.05 0.05 0.05 0.06 0.06
0.02 0.02 0.02 0.02 0.02 0.02 0.02 0.02 0.02 0.03 0.03 0.03 0.03 0.03 0.02 0.02 0.02 0.03 0.03 0.03 0.03 0.02 0.02 0.02 0.02 0.04 0.05 0.07 0.07 0.07 0.07 0.07 0.07 0.05 0.05 0.05 0.06 0.06
0.02 0.02 0.02 0.02 0.02 0.03 0.03 0.03 0.03 0.03 0.03 0.04 0.03 0.03 0.03 0.03 0.02 0.02 0.02 0.03 0.03 0.03 0.03 0.03 0.03 0.04 0.05 0.06 0.07 0.07 0.07 0.07 0.07 0.07 0.06 0.05 0.05 0.05
0.01 0.02 0.02 0.03 0.03 0.03 0.03 0.03 0.04 0.04 0.04 0.04 0.04 0.04 0.04 0.04 0.03 0.03 0.03 0.03 0.03 0.04 0.04 0.04 0.04 0.05 0.06 0.05 0.05 0.05 0.06 0.07 0.07 0.07 0.06 0.05 0.05 0.05
0.01 0.02 0.03 0.03 0.03 0.03 0.03 0.04 0.04 0.04 0.04 0.04 0.05 0.05 0.06 0.06 0.04 0.04 0.03 0.03 0.04 0.04 0.04 0.05 0.05 0.05 0.06 0.05 0.05 0.04 0.04 0.06 0.06 0.06 0.05 0.04 0.04 0.04
0.02 0.02 0.02 0.02 0.03 0.03 0.04 0.04 0.04 0.04 0.04 0.04 0.05 0.05 0.06 0.07 0.06 0.05 0.05 0.04 0.04 0.04 0.04 0.04 0.03 0.04 0.05 0.05 0.04 0.04 0.04 0.05 0.05 0.05 0.04 0.04 0.04 0.04
0.02 0.02 0.02 0.02 0.02 0.02 0.03 0.03 0.03 0.04 0.04 0.04 0.05 0.05 0.05 0.06 0.06 0.05 0.05 0.05 0.04 0.03 0.03 0.03 0.03 0.04 0.04 0.05 0.04 0.04 0.05 0.04 0.04 0.05 0.05 0.05 0.05 0.06
0.02 0.02 0.02 0.02 0.02 0.02 0.02 0.03 0.03 0.02 0.03 0.03 0.04 0.04 0.04 0.04 0.04 0.04 0.04 0.04 0.03 0.03 0.03 0.03 0.03 0.03 0.04 0.04 0.04 0.04 0.04 0.04 0.04 0.05 0.06 0.06 0.05 0.04
MSLP
1011.78 1012.01 1012.20 1012.32 1012.39 1012.39 1012.34 1012.28 1012.22 1012.18 1012.19 1012.25 1012.38 1012.56 1012.79 1013.07 1013.39 1013.74 1014.13 1014.56 1015.04 1015.55 1016.10 1016.67 1017.25 1017.81 1018.33 1018.80 1019.19 1019.50 1019.74 1019.90 1019.98 1020.01 1019.98 1019.91 1019.79 1019.63
1011.18 1011.34 1011.46 1011.53 1011.55 1011.51 1011.46 1011.40 1011.36 1011.36 1011.41 1011.52 1011.70 1011.92 1012.20 1012.52 1012.87 1013.25 1013.68 1014.14 1014.65 1015.20 1015.78 1016.37 1016.96 1017.53 1018.05 1018.51 1018.89 1019.20 1019.43 1019.58 1019.68 1019.72 1019.72 1019.67 1019.58 1019.44
1010.63 1010.71 1010.76 1010.77 1010.74 1010.69 1010.62 1010.58 1010.57 1010.61 1010.70 1010.86 1011.08 1011.34 1011.65 1011.99 1012.37 1012.78 1013.23 1013.73 1014.26 1014.84 1015.44 1016.05 1016.66 1017.22 1017.74 1018.19 1018.56 1018.86 1019.08 1019.24 1019.35 1019.40 1019.43 1019.41 1019.34 1019.23
1010.11 1010.11 1010.09 1010.04 1009.97 1009.90 1009.84 1009.81 1009.83 1009.90 1010.03 1010.22 1010.47 1010.76 1011.08 1011.44 1011.83 1012.26 1012.73 1013.25 1013.81 1014.42 1015.04 1015.68 1016.30 1016.88 1017.40 1017.85 1018.22 1018.51 1018.73 1018.90 1019.01 1019.09 1019.14 1019.15 1019.11 1019.02
1009.61 1009.53 1009.44 1009.33 1009.23 1009.14 1009.07 1009.06 1009.10 1009.20 1009.35 1009.56 1009.82 1010.11 1010.44 1010.80 1011.20 1011.64 1012.13 1012.67 1013.26 1013.90 1014.56 1015.23 1015.88 1016.48 1017.03 1017.49 1017.87 1018.17 1018.41 1018.58 1018.71 1018.81 1018.88 1018.91 1018.90 1018.83
1009.11 1008.95 1008.78 1008.62 1008.48 1008.36 1008.29 1008.28 1008.33 1008.44 1008.60 1008.82 1009.07 1009.36 1009.69 1010.05 1010.45 1010.90 1011.41 1011.98 1012.61 1013.29 1013.99 1014.71 1015.40 1016.05 1016.63 1017.12 1017.53 1017.86 1018.11 1018.30 1018.45 1018.57 1018.65 1018.69 1018.70 1018.65
1008.61 1008.36 1008.11 1007.88 1007.69 1007.54 1007.45 1007.42 1007.47 1007.57 1007.73 1007.94 1008.19 1008.48 1008.80 1009.16 1009.57 1010.05 1010.59 1011.20 1011.88 1012.61 1013.37 1014.14 1014.89 1015.59 1016.21 1016.75 1017.20 1017.56 1017.85 1018.07 1018.23 1018.36 1018.45 1018.50 1018.50 1018.45
1008.11 1007.75 1007.41 1007.10 1006.84 1006.64 1006.51 1006.46 1006.48 1006.57 1006.71 1006.91 1007.16 1007.45 1007.79 1008.17 1008.61 1009.13 1009.72 1010.38 1011.11 1011.91 1012.73 1013.56 1014.36 1015.12 1015.80 1016.39 1016.88 1017.29 1017.60 1017.85 1018.04 1018.17 1018.26 1018.30 1018.29 1018.23
1007.62 1007.15 1006.69 1006.29 1005.94 1005.67 1005.48 1005.38 1005.36 1005.42 1005.55 1005.75 1006.00 1006.32 1006.68 1007.11 1007.61 1008.19 1008.84 1009.57 1010.38 1011.23 1012.11 1012.99 1013.85 1014.65 1015.38 1016.02 1016.56 1017.01 1017.36 1017.64 1017.84 1017.98 1018.06 1018.09 1018.06 1017.97
1007.19 1006.58 1006.00 1005.47 1005.02 1004.65 1004.38 1004.21 1004.14 1004.17 1004.28 1004.48 1004.76 1005.11 1005.54 1006.04 1006.62 1007.28 1008.02 1008.82 1009.69 1010.60 1011.53 1012.46 1013.35 1014.19 1014.96 1015.64 1016.22 1016.71 1017.11 1017.41 1017.63 1017.78 1017.85 1017.86 1017.80 1017.68
1006.84 1006.09 1005.38 1004.72 1004.15 1003.67 1003.30 1003.04 1002.91 1002.89 1002.98 1003.19 1003.50 1003.90 1004.40 1004.99 1005.67 1006.43 1007.25 1008.14 1009.08 1010.04 1011.00 1011.95 1012.87 1013.73 1014.52 1015.23 1015.85 1016.38 1016.82 1017.15 1017.40 1017.56 1017.63 1017.62 1017.53 1017.37
1006.64 1005.76 1004.91 1004.12 1003.41 1002.81 1002.33 1001.97 1001.76 1001.68 1001.75 1001.95 1002.29 1002.75 1003.33 1004.01 1004.79 1005.64 1006.56 1007.52 1008.51 1009.51 1010.50 1011.47 1012.39 1013.26 1014.07 1014.80 1015.45 1016.01 1016.49 1016.87 1017.14 1017.32 1017.40 1017.37 1017.26 1017.07
1006.62 1005.62 1004.66 1003.74 1002.91 1002.19 1001.59 1001.12 1000.81 1000.67 1000.68 1000.87 1001.22 1001.72 1002.37 1003.13 1003.99 1004.93 1005.93 1006.96 1007.99 1009.02 1010.02 1010.99 1011.91 1012.78 1013.59 1014.34 1015.01 1015.62 1016.13 1016.55 1016.87 1017.07 1017.16 1017.13 1017.01 1016.79
1006.83 1005.75 1004.69 1003.68 1002.74 1001.90 1001.18 1000.61 1000.19 999.96 999.91 1000.05 1000.39 1000.90 1001.58 1002.39 1003.32 1004.32 1005.37 1006.44 1007.51 1008.55 1009.55 1010.52 1011.43 1012.29 1013.11 1013.87 1014.57 1015.20 1015.76 1016.21 1016.57 1016.80 1016.91 1016.88 1016.75 1016.51
1007.27 1006.15 1005.05 1003.97 1002.96 1002.03 1001.21 1000.52 1000.00 999.66 999.52 999.59 999.87 1000.36 1001.03 1001.85 1002.80 1003.82 1004.90 1005.99 1007.07 1008.12 1009.12 1010.08 1010.98 1011.84 1012.66 1013.42 1014.14 1014.80 1015.38 1015.87 1016.24 1016.50 1016.62 1016.60 1016.45 1016.20
1007.94 1006.83 1005.73 1004.64 1003.59 1002.60 1001.70 1000.92 1000.29 999.84 999.59 999.56 999.76 1000.17 1000.78 1001.57 1002.48 1003.50 1004.56 1005.65 1006.72 1007.76 1008.76 1009.71 1010.60 1011.46 1012.27 1013.04 1013.76 1014.42 1015.01 1015.51 1015.89 1016.15 1016.27 1016.24 1016.08 1015.81
1008.80 1007.76 1006.70 1005.64 1004.60 1003.59 1002.64 1001.79 1001.07 1000.51 1000.14 999.99 1000.07 1000.38 1000.89 1001.59 1002.43 1003.39 1004.41 1005.46 1006.51 1007.53 1008.51 1009.44 1010.33 1011.17 1011.97 1012.73 1013.44 1014.09 1014.67 1015.15 1015.51 1015.74 1015.84 1015.78 1015.60 1015.31
1009.79 1008.86 1007.89 1006.91 1005.91 1004.92 1003.97 1003.08 1002.29 1001.64 1001.16 1000.88 1000.83 1001.00 1001.38 1001.95 1002.68 1003.54 1004.48 1005.46 1006.46 1007.44 1008.40 1009.31 1010.18 1011.00 1011.79 1012.52 1013.20 1013.82 1014.35 1014.78 1015.10 1015.28 1015.32 1015.23 1015.01 1014.68
1010.82 1010.01 1009.17 1008.30 1007.39 1006.46 1005.53 1004.64 1003.82 1003.10 1002.53 1002.13 1001.94 1001.96 1002.19 1002.62 1003.21 1003.94 1004.76 1005.66 1006.58 1007.51 1008.42 1009.30 1010.14 1010.94 1011.70 1012.40 1013.03 1013.59 1014.06 1014.42 1014.66 1014.77 1014.75 1014.60 1014.33 1013.97
1011.78 1011.12 1010.42 1009.67 1008.87 1008.03 1007.17 1006.31 1005.49 1004.74 1004.11 1003.62 1003.30 1003.18 1003.26 1003.52 1003.96 1004.54 1005.23 1006.01 1006.84 1007.69 1008.55 1009.38 1010.19 1010.95 1011.67 1012.32 1012.90 1013.39 1013.79 1014.07 1014.23 1014.26 1014.16 1013.94 1013.62 1013.22
1012.60 1012.07 1011.50 1010.88 1010.21 1009.48 1008.70 1007.91 1007.13 1006.38 1005.72 1005.17 1004.76 1004.52 1004.45 1004.56 1004.83 1005.25 1005.80 1006.45 1007.17 1007.93 1008.71 1009.49 1010.25 1010.97 1011.64 1012.25 1012.77 1013.21 1013.53 1013.74 1013.83 1013.78 1013.62 1013.34 1012.97 1012.53
1013.18 1012.77 1012.31 1011.81 1011.26 1010.64 1009.98 1009.27 1008.56 1007.86 1007.20 1006.62 1006.15 1005.82 1005.63 1005.60 1005.72 1005.98 1006.38 1006.88 1007.48 1008.14 1008.83 1009.54 1010.25 1010.92 1011.56 1012.13 1012.61 1013.00 1013.28 1013.44 1013.47 1013.38 1013.17 1012.85 1012.44 1011.97
1013.51 1013.16 1012.80 1012.39 1011.94 1011.44 1010.88 1010.28 1009.65 1009.02 1008.40 1007.84 1007.34 1006.95 1006.67 1006.52 1006.50 1006.62 1006.87 1007.24 1007.70 1008.25 1008.85 1009.48 1010.13 1010.77 1011.38 1011.92 1012.39 1012.76 1013.02 1013.16 1013.18 1013.07 1012.84 1012.51 1012.09 1011.61
Thickness
5552 5549 5546 5544 5541 5538 5535 5531 5527 5527 5532 5533 5528 5527 5522 5518 5516 5514 5513 5512 5512 5512 5513 5513 5514 5515 5516 5517 5518 5519 5519 5520 5521 5522 5523 5525 5527 5529
5541 5539 5536 5534 5531 5528 5525 5521 5517 5514 5516 5520 5516 5513 5511 5508 5505 5503 5502 5502 5501 5502 5502 5503 5503 5504 5505 5506 5506 5507 5508 5508 5509 5510 5511 5512 5514 5515
5530 5528 5526 5523 5521 5518 5514 5510 5506 5502 5501 5506 5503 5501 5499 5497 5495 5493 5491 5491 5491 5491 5491 5492 5492 5493 5493 5494 5494 5495 5496 5496 5497 5497 5498 5499 5501 5502
5520 5517 5515 5512 5509 5506 5503 5500 5496 5491 5488 5489 5492 5489 5487 5485 5483 5482 5482 5481 5481 5481 5481 5482 5482 5482 5482 5482 5482 5483 5483 5483 5484 5485 5486 5487 5488 5489
5509 5506 5504 5500 5497 5495 5491 5488 5485 5482 5478 5476 5478 5477 5475 5473 5472 5472 5471 5471 5471 5471 5471 5471 5471 5471 5471 5471 5471 5471 5472 5472 5472 5473 5473 5474 5475 5477
5498 5495 5492 5489 5486 5483 5481 5478 5474 5471 5468 5465 5465 5465 5463 5462 5460 5460 5462 5462 5461 5461 5461 5460 5460 5460 5460 5460 5461 5461 5461 5461 5461 5462 5462 5463 5464 5466
5487 5484 5481 5478 5476 5473 5470 5467 5463 5460 5457 5455 5455 5454 5453 5451 5450 5449 5449 5451 5452 5451 5451 5451 5450 5451 5450 5449 5449 5450 5450 5450 5451 5451 5451 5452 5454 5456
5476 5473 5470 5467 5465 5462 5460 5457 5454 5450 5448 5446 5445 5444 5444 5441 5440 5438 5437 5439 5443 5443 5439 5443 5440 5441 5440 5439 5439 5439 5439 5440 5440 5441 5441 5442 5444 5445
5462 5460 5458 5456 5453 5451 5449 5447 5445 5442 5439 5437 5436 5436 5434 5433 5430 5430 5428 5428 5430 5430 5427 5433 5432 5431 5431 5430 5429 5429 5430 5430 5430 5431 5432 5433 5434 5436
5450 5447 5446 5444 5442 5441 5439 5438 5437 5434 5432 5430 5428 5428 5427 5425 5423 5421 5420 5421 5421 5419 5415 5418 5422 5421 5422 5421 5421 5420 5420 5420 5421 5422 5423 5424 5425 5427
5438 5436 5435 5434 5434 5432 5430 5429 5429 5427 5425 5423 5422 5421 5420 5417 5414 5412 5411 5409 5412 5413 5407 5405 5409 5410 5414 5414 5414 5412 5411 5411 5412 5413 5414 5416 5417 5419
5427 5426 5425 5424 5424 5423 5421 5420 5420 5419 5418 5417 5415 5413 5411 5409 5406 5402 5400 5398 5398 5401 5401 5396 5397 5395 5402 5408 5406 5404 5403 5403 5404 5405 5407 5408 5409 5410
5416 5415 5414 5414 5415 5414 5413 5411 5411 5410 5409 5407 5406 5405 5403 5400 5398 5395 5392 5389 5388 5389 5389 5385 5385 5384 5384 5392 5398 5396 5395 5395 5395 5397 5398 5400 5401 5402
5404 5404 5404 5404 5405 5404 5403 5402 5402 5400 5398 5397 5396 5395 5394 5392 5390 5388 5386 5383 5381 5380 5380 5377 5376 5376 5376 5380 5386 5389 5388 5387 5387 5389 5390 5392 5395 5396
5393 5394 5394 5394 5394 5393 5392 5392 5391 5389 5387 5386 5386 5385 5384 5383 5382 5380 5379 5377 5376 5374 5373 5371 5369 5369 5368 5370 5375 5377 5379 5381 5381 5382 5384 5386 5389 5391
5382 5383 5384 5383 5382 5382 5382 5380 5379 5377 5377 5376 5376 5376 5375 5374 5373 5372 5371 5371 5370 5370 5367 5365 5363 5362 5362 5363 5365 5368 5370 5371 5375 5376 5379 5383 5385 5386
5372 5372 5372 5372 5371 5370 5370 5369 5368 5367 5367 5367 5366 5367 5366 5366 5365 5364 5363 5362 5361 5361 5361 5359 5358 5357 5357 5357 5360 5363 5364 5367 5369 5371 5374 5378 5381 5382
5361 5360 5359 5359 5359 5358 5358 5358 5357 5357 5356 5356 5357 5357 5357 5357 5357 5356 5355 5354 5353 5353 5352 5351 5351 5353 5355 5356 5356 5358 5360 5362 5364 5366 5367 5371 5376 5379
5348 5347 5347 5347 5347 5347 5346 5346 5346 5346 5345 5345 5346 5346 5347 5348 5348 5348 5347 5346 5346 5345 5345 5344 5344 5345 5348 5352 5354 5353 5353 5356 5358 5361 5363 5365 5369 5374
5336 5335 5336 5336 5336 5336 5336 5336 5336 5336 5335 5335 5336 5336 5337 5338 5339 5339 5339 5338 5338 5339 5339 5339 5338 5338 5339 5342 5345 5348 5349 5349 5352 5356 5358 5361 5364 5369
5326 5325 5325 5326 5326 5326 5326 5326 5326 5326 5326 5326 5326 5327 5327 5328 5329 5330 5331 5332 5332 5332 5333 5334 5334 5334 5334 5336 5340 5345 5346 5347 5348 5350 5353 5357 5361 5366
5316 5316 5316 5316 5316 5317 5317 5317 5317 5317 5317 5317 5318 5318 5320 5321 5322 5323 5325 5325 5326 5327 5327 5329 5330 5331 5332 5334 5337 5340 5342 5345 5347 5349 5351 5354 5356 5361
5307 5307 5307 5308 5308 5308 5308 5308 5308 5308 5309 5309 5310 5312 5313 5314 5316 5317 5318 5320 5321 5322 5323 5324 5326 5328 5329 5331 5333 5335 5337 5340 5344 5347 5350 5353 5356 5359